EDT,Max TemperatureF,Mean TemperatureF,Min TemperatureF,Max Dew PointF,MeanDew PointF,Min DewpointF,Max Humidity, Mean Humidity, Min Humidity, Max Sea Level PressureIn, Mean Sea Level PressureIn, Min Sea Level PressureIn, Max VisibilityMiles, Mean VisibilityMiles, Min VisibilityMiles, Max Wind SpeedMPH, Mean Wind SpeedMPH, Max Gust SpeedMPH,PrecipitationIn, CloudCover, Events, WindDirDegrees
2013-9-1,92,83,74,75,73,70,94,81,49,29.95,29.91,29.83,10,6,1,13,4,17,0.00,3,,211
2013-9-2,91,82,73,75,72,69,94,81,56,29.94,29.89,29.84,10,7,2,22,5,25,0.16,2,Rain,218
2013-9-3,92,82,72,73,71,69,94,77,49,29.96,29.89,29.86,10,9,6,16,5,21,0.00,0,,236
2013-9-4,93,82,71,74,70,67,93,75,44,30.08,30.01,29.95,10,8,2,12,2,15,T,1,,253
2013-9-5,91,82,72,72,69,64,93,73,44,30.11,30.06,30.03,10,8,4,3,2,5,0.00,0,,1
2013-9-6,89,79,69,70,66,63,97,71,43,30.13,30.08,30.04,10,9,4,12,3,17,0.00,0,,47
2013-9-7,88,77,66,67,64,59,90,69,39,30.11,30.05,29.99,10,9,6,10,4,15,0.00,1,,48
2013-9-8,91,79,66,71,66,62,93,78,41,30.01,29.97,29.92,10,6,1,10,2,15,0.00,1,,278
2013-9-9,92,80,68,70,68,65,97,78,41,30.14,30.05,29.99,10,6,0,13,2,16,0.00,1,Fog,119
2013-9-10,90,79,68,70,67,61,97,75,38,30.24,30.18,30.14,10,7,2,12,4,17,0.00,0,,88
2013-9-11,89,78,66,71,66,61,93,75,38,30.21,30.16,30.09,10,7,2,10,3,14,0.00,1,,68
2013-9-12,90,78,66,69,66,63,97,74,41,30.09,30.00,29.88,10,7,2,12,4,16,0.00,0,,234
2013-9-13,90,80,69,69,66,62,90,66,41,29.88,29.82,29.75,10,9,6,12,4,18,0.00,2,,319
2013-9-14,81,73,65,63,57,51,73,57,48,30.08,29.97,29.85,10,10,10,15,8,20,0.00,5,,45
2013-9-15,89,77,65,71,66,61,93,72,50,30.17,30.12,30.08,10,10,9,10,6,15,0.00,2,,90
2013-9-16,87,79,70,72,71,69,93,86,57,30.14,30.10,30.04,10,6,0,21,2,30,0.53,4,Fog-Rain,101
2013-9-17,81,74,66,72,61,55,93,68,45,30.25,30.17,30.10,10,9,5,15,8,21,0.00,5,,55
2013-9-18,80,70,60,59,56,53,90,66,42,30.26,30.20,30.15,10,10,9,14,5,20,0.00,1,,48
2013-9-19,84,71,57,63,57,53,97,67,40,30.19,30.14,30.09,10,10,7,10,2,13,0.00,0,,61
2013-9-20,87,75,63,67,64,61,93,73,48,30.10,30.03,29.95,10,9,6,9,2,12,0.00,1,,201
2013-9-21,85,75,64,72,67,63,93,80,55,29.96,29.82,29.72,10,9,3,15,6,20,0.18,3,Rain,207
2013-9-22,84,75,65,70,64,58,93,76,45,29.88,29.77,29.72,10,10,5,16,6,22,0.01,5,Rain,344
2013-9-23,81,71,60,63,58,54,97,72,39,30.05,29.99,29.89,10,9,5,13,3,22,0.00,0,,70
2013-9-24,81,70,59,60,57,53,93,68,39,30.07,30.01,29.93,10,10,8,14,5,20,0.00,2,,82
2013-9-25,78,71,64,64,62,59,93,84,56,29.92,29.87,29.82,10,6,1,12,6,16,0.72,7,Rain,41
2013-9-26,79,71,63,63,60,55,93,79,48,29.99,29.91,29.84,10,8,5,14,7,17,T,6,Rain,36
2013-9-27,79,70,60,58,55,53,84,65,42,30.14,30.06,29.99,10,10,10,16,8,23,0.00,0,,43
2013-9-28,78,68,58,58,54,53,86,67,43,30.19,30.15,30.12,10,10,10,17,8,22,0.00,2,,36
2013-9-29,76,67,58,59,55,53,90,69,46,30.14,30.09,30.03,10,10,10,13,5,15,0.00,4,,39
2013-9-30,77,66,54,57,54,51,93,73,46,30.09,30.05,30.01,10,10,10,10,1,13,0.00,1,,68